Home > Weather > Tempe > Past weeks

Flag for USA Weather for the Past 2 Weeks in Tempe, Arizona, USA

Now
65 °F

Passing clouds.


Feels Like: 65 °F
Forecast: 60 / 80 °F
Wind: 7 mph from Southwest

Location: Phoenix Sky Harbor International Airport

Current Time: Apr 29, 2016 at 2:19:21 AM

Latest Report: Apr 29, 2016 at 12:51 AM


Visibility: 10 mi

Pressure: 29.75 "Hg

Humidity: 36%

Dew Point: 37 °F

Location of TempeLocation

Historic Weather in Tempe — Graph

°F

Tempe Temperature Yesterday

Maximum temperature yesterday: 75 °F (at 1:51 PM)
Minimum temperature yesterday: 64 °F (at 5:51 AM)
Average temperature yesterday: 70 °F

High & Low Weather Summary for the Past Weeks

 TemperatureHumidityPressure
High96 °F (Apr 21, 3:51 PM)45% (Apr 14, 3:51 AM)30.03 "Hg (Apr 14, 3:51 AM)
Low58 °F (Apr 26, 5:51 AM)5% (Apr 20, 4:51 PM)29.53 "Hg (Apr 15, 2:51 PM)
Average75 °F18%29.77 "Hg
* Reported Apr 13 11:51 PM — Apr 28 11:51 PM, Tempe, Weather by CustomWeather, © 2016

Note: Actual official high and low records may vary slightly from our data, if they occured in-between our weather recording intervals... More about our weather records

Advertising

Tempe Weather History for the Previous 24 Hours

Scroll right to see more
 ConditionsComfort  
Time TempWeatherWind HumidityBarometerVisibility
11:51 PM
Thu, Apr 28
66 °FPassing clouds.7 mph33%29.74 "Hg10 mi
10:51 PM68 °FPassing clouds.9 mph27%29.73 "Hg10 mi
9:51 PM70 °FPassing clouds.12 mph25%29.70 "Hg10 mi
8:51 PM70 °FPassing clouds.6 mph22%29.70 "Hg10 mi
7:51 PM72 °FPassing clouds.12 mph19%29.67 "Hg10 mi
6:51 PM72 °FScattered clouds.12 mph18%29.65 "Hg10 mi
5:51 PM73 °FScattered clouds.12 mph16%29.64 "Hg10 mi
4:51 PM75 °FScattered clouds.10 mph14%29.64 "Hg10 mi
3:51 PM73 °FScattered clouds.7 mph14%29.65 "Hg10 mi
2:51 PM74 °FPassing clouds.14 mph12%29.66 "Hg10 mi
1:51 PM75 °FPassing clouds.20 mph11%29.67 "Hg10 mi
12:51 PM74 °FPassing clouds.17 mph15%29.67 "Hg10 mi
11:51 AM72 °FPassing clouds.9 mph20%29.67 "Hg10 mi
10:51 AM71 °FPassing clouds.12 mph20%29.67 "Hg10 mi
9:51 AM70 °FPartly sunny.9 mph21%29.67 "Hg10 mi
8:51 AM66 °FPartly sunny.7 mph22%29.65 "Hg10 mi
7:51 AM66 °FPartly sunny.8 mph22%29.64 "Hg10 mi
6:51 AM65 °FScattered clouds.8 mph28%29.62 "Hg10 mi
5:51 AM64 °FScattered clouds.6 mph26%29.60 "Hg10 mi
4:51 AM67 °FPassing clouds.7 mph30%29.59 "Hg10 mi
3:51 AM67 °FPassing clouds.5 mph21%29.58 "Hg10 mi
2:51 AM69 °FPassing clouds.5 mph17%29.59 "Hg10 mi
Weather by CustomWeather, © 2016

See weather overviewHow to use our weather pages